Vorticity
16 37 20 10 10 30 17 1 -1 -17 8 8 -8 7 8 19 8 12 12 25 24 26 27 30 23 16 24 16 15 21 23 14 9 15 25 27 24 15 -38 18 31 41 -12 -0
39 6 -6 42 4 2 -3 -20 18 13 1 -30 17 8 11 15 7 10 20 32 28 28 29 31 30 17 23 20 33 20 31 19 9 30 24 3 35 -9 4 -4 47 -15 7 13
1 -12 44 24 -7 11 -34 22 37 13 -17 11 7 12 12 4 5 20 24 32 34 32 31 35 24 27 21 33 26 25 30 6 23 30 17 9 13 -23 62 -22 36 46 -18 -23
-10 31 12 -35 12 -24 -6 41 13 -9 5 7 9 7 20 2 14 22 23 35 35 46 23 19 24 23 27 22 25 29 8 19 29 10 11 -0 -4 10 34 52 7 32 25 20
6 18 -6 43 -19 -12 35 54 -25 2 13 10 8 9 8 19 19 18 31 35 36 41 16 21 24 16 29 19 23 9 21 34 18 -10 16 -2 -0 -18 24 18 21 8 19 -27
17 13 5 -29 -20 4 38 20 -22 10 8 8 8 3 5 6 12 17 18 24 38 36 17 13 22 19 35 27 17 47 30 19 33 -1 1 -1 -18 12 16 38 23 65 -34 -27
17 7 11 34 -22 38 16 -81 8 10 9 7 8 13 8 7 19 20 15 27 26 34 13 28 17 20 22 27 53 8 -4 34 18 6 -12 13 -13 3 -15 -15 57 21 32 50
13 13 17 -35 21 22 1 13 7 10 8 7 10 11 9 11 17 17 13 37 11 18 33 29 28 50 78 17 -19 -22 10 3 26 15 -6 2 5 7 -1 15 4 14 37 65
15 -15 4 6 7 14 12 9 7 7 8 9 9 8 9 10 16 17 6 26 48 53 30 7 -9 -48 -20 43 28 24 22 8 -14 42 0 0 -4 6 2 4 4 42 43 23
36 -14 7 20 6 13 11 9 8 8 9 9 9 8 11 10 17 15 3 17 58 -16 5 48 55 30 34 27 23 49 19 2 -3 -1 5 13 5 6 3 2 11 37 33 13
9 16 17 0 8 10 11 9 8 9 9 10 8 8 9 10 15 16 6 26 21 23 10 28 29 7 44 16 29 6 4 6 5 -0 3 -1 -5 7 13 6 23 22 29 19
8 13 9 8 8 8 9 8 8 8 10 8 9 9 9 10 15 15 8 22 16 17 26 -5 6 -6 41 12 28 -1 3 5 5 8 15 16 13 10 -4 2 -4 -13 9 10
7 12 12 9 9 8 8 8 8 9 7 8 10 9 10 9 13 18 10 15 22 32 27 42 29 37 28 6 10 20 11 5 -1 7 1 6 16 24 12 -6 10 10 53 18
10 11 11 10 9 9 8 7 7 7 8 8 11 10 9 10 14 16 15 6 12 24 22 22 17 13 5 18 10 3 5 5 3 5 7 8 6 4 11 5 16 33 19 12
10 10 10 10 10 10 8 8 7 7 9 11 10 12 10 11 9 10 15 10 8 18 19 41 1 6 12 13 11 14 6 19 25 14 4 3 9 2 7 -3 11 16 10 13
10 10 11 11 11 11 9 8 7 7 8 10 10 12 11 11 8 10 11 18 9 10 20 20 20 -19 18 2 -0 8 -0 7 5 16 13 17 15 15 13 12 5 15 7 5
10 10 11 11 11 10 9 9 8 7 8 8 10 12 12 11 10 12 13 16 14 3 7 13 27 27 33 4 -7 -12 4 13 -1 5 5 2 9 9 6 17 18 15 15 6
10 10 11 11 11 10 11 11 9 8 7 8 10 10 13 11 14 13 12 12 12 15 5 14 11 17 17 6 20 11 6 10 17 12 4 9 15 19 11 22 21 13 17 15
10 9 10 10 9 10 11 12 12 10 8 8 10 11 11 14 10 13 11 13 12 15 16 8 12 9 13 28 15 8 12 8 9 18 15 14 9 4 17 8 24 7 23 15
10 9 9 9 9 9 11 10 12 11 10 9 9 11 11 12 14 13 13 17 14 19 21 13 6 16 5 10 13 18 23 18 20 4 20 4 14 14 17 26 14 12 13 3
9 9 9 9 9 10 11 11 12 12 11 10 10 11 12 12 15 15 13 11 11 14 20 23 17 9 13 9 4 11 13 10 10 13 4 3 9 10 6 4 -1 16 15 7
8 8 9 10 10 11 12 12 12 10 12 13 10 11 12 11 12 13 12 15 13 14 16 21 21 16 17 11 14 3 9 10 7 17 11 5 9 6 2 -2 1 8 4 5
6 7 7 10 10 11 15 14 12 11 12 15 11 11 10 12 12 16 13 12 11 12 14 17 20 21 19 16 12 14 14 3 11 5 5 2 9 14 10 13 13 12 19 19
6 7 8 10 10 12 15 15 14 13 14 17 12 10 11 12 11 12 16 16 15 13 12 13 21 20 21 19 14 11 11 16 18 2 3 4 9 5 5 10 16 10 12 15
7 8 9 11 14 16 18 16 14 14 16 17 12 11 10 11 13 11 14 14 15 15 14 11 16 19 20 21 20 16 14 11 13 17 15 9 7 8 10 13 9 0 13 13
9 9 10 13 18 18 14 16 17 14 16 17 12 12 9 11 14 11 12 14 16 14 15 14 13 17 17 21 21 20 15 18 14 14 14 17 20 14 9 5 9 8 14 3
8 9 13 15 17 12 13 21 26 22 20 16 11 10 11 11 14 12 12 14 14 16 14 17 13 14 14 15 18 18 19 16 19 16 13 12 12 12 12 16 14 18 9 8
Height
3063 3057 3053 3047 3043 3042 3039 3035 3028 3005 2997 2984 2967 2949 2935 2921 2905 2888 2873 2859 2847 2833 2824 2819 2818 2821 2825 2831 2839 2850 2861 2875 2890 2905 2920 2937 2956 2972 2980 2988 2998 3008 3020 3035
3053 3051 3047 3041 3040 3036 3032 3027 3015 3002 2988 2982 2965 2946 2930 2917 2898 2879 2863 2849 2833 2821 2813 2808 2808 2811 2816 2822 2830 2841 2853 2869 2886 2901 2917 2934 2950 2970 2978 2986 2994 3002 3015 3028
3052 3048 3043 3042 3036 3031 3026 3019 3008 2996 2983 2967 2950 2937 2926 2904 2888 2875 2859 2838 2823 2812 2803 2800 2801 2804 2810 2815 2824 2835 2847 2863 2879 2897 2912 2932 2952 2964 2970 2980 2988 3000 3012 3023
3053 3047 3040 3034 3033 3029 3020 3010 3005 2995 2980 2966 2951 2935 2922 2902 2891 2872 2853 2833 2819 2809 2803 2801 2801 2804 2807 2812 2823 2834 2845 2859 2877 2891 2911 2931 2951 2963 2974 2980 2987 2997 3009 3019
3060 3052 3041 3034 3032 3024 3014 3004 2997 2986 2974 2963 2946 2925 2914 2905 2888 2869 2852 2832 2819 2811 2808 2805 2805 2806 2807 2814 2824 2833 2845 2860 2875 2895 2912 2935 2950 2963 2970 2975 2982 2993 3005 3011
3061 3056 3042 3034 3030 3024 3012 3001 2997 2987 2972 2955 2936 2911 2900 2891 2876 2865 2851 2833 2821 2814 2812 2810 2810 2810 2812 2818 2827 2837 2851 2865 2880 2894 2917 2937 2950 2961 2968 2973 2982 2992 3001 3012
3059 3053 3041 3036 3030 3022 3019 3009 2991 2985 2973 2959 2946 2940 2915 2896 2883 2871 2854 2836 2827 2818 2814 2815 2815 2816 2820 2827 2836 2847 2857 2872 2886 2904 2921 2938 2950 2959 2967 2973 2981 2992 3002 3009
3056 3052 3043 3036 3029 3026 3018 3006 2993 2984 2973 2959 2950 2935 2917 2903 2887 2868 2857 2849 2837 2826 2822 2821 2820 2822 2828 2837 2847 2856 2864 2881 2896 2911 2924 2937 2947 2956 2966 2975 2984 2990 2997 3002
3061 3053 3046 3036 3028 3021 3012 3002 2993 2981 2972 2960 2949 2935 2920 2905 2892 2879 2869 2860 2848 2843 2838 2837 2833 2837 2841 2844 2850 2861 2875 2893 2906 2918 2932 2941 2948 2956 2964 2974 2983 2989 2993 2998
3050 3046 3040 3033 3028 3022 3011 3001 2993 2985 2974 2962 2951 2938 2927 2913 2902 2890 2873 2869 2858 2851 2847 2846 2845 2845 2849 2853 2863 2878 2889 2902 2914 2923 2934 2944 2949 2955 2965 2973 2980 2986 2993 2996
3043 3041 3036 3030 3022 3017 3011 3002 2994 2986 2977 2965 2955 2944 2931 2920 2910 2901 2889 2878 2874 2866 2864 2857 2858 2856 2861 2872 2883 2893 2904 2912 2921 2929 2935 2942 2950 2958 2969 2976 2981 2986 2989 2994
3039 3035 3030 3024 3019 3013 3008 3000 2992 2983 2977 2969 2958 2950 2938 2928 2919 2910 2902 2894 2885 2881 2878 2878 2873 2875 2880 2885 2896 2906 2912 2919 2926 2932 2938 2944 2952 2962 2968 2972 2977 2983 2989 2992
3036 3030 3025 3021 3015 3010 3006 3000 2991 2985 2976 2969 2963 2953 2946 2936 2927 2919 2913 2906 2901 2895 2891 2889 2888 2892 2895 2903 2912 2918 2924 2930 2935 2940 2944 2949 2955 2961 2962 2967 2972 2978 2985 2988
3031 3026 3023 3018 3013 3007 3002 2998 2992 2983 2977 2971 2965 2958 2949 2942 2936 2928 2920 2912 2913 2909 2904 2899 2900 2903 2907 2914 2920 2926 2931 2937 2941 2944 2949 2952 2955 2954 2958 2968 2973 2975 2977 2983
3028 3023 3018 3013 3009 3005 3001 2999 2993 2986 2980 2976 2969 2961 2953 2944 2939 2933 2928 2926 2920 2919 2914 2912 2913 2913 2917 2923 2928 2932 2935 2938 2941 2944 2947 2952 2953 2954 2961 2965 2970 2975 2976 2981
3024 3019 3016 3012 3007 3002 2997 2993 2990 2985 2979 2974 2969 2964 2956 2949 2941 2938 2932 2929 2926 2922 2920 2919 2916 2919 2923 2926 2927 2930 2934 2938 2942 2943 2947 2948 2951 2953 2955 2963 2968 2973 2978 2982
3020 3016 3012 3007 3002 2997 2993 2989 2984 2981 2978 2972 2968 2964 2959 2952 2946 2942 2938 2933 2930 2926 2926 2926 2924 2924 2925 2927 2928 2929 2934 2937 2940 2943 2945 2946 2950 2953 2956 2963 2967 2970 2973 2980
3014 3011 3007 3003 2999 2995 2990 2985 2982 2978 2974 2972 2966 2963 2959 2953 2948 2943 2941 2937 2934 2930 2931 2928 2928 2927 2925 2928 2929 2933 2936 2938 2940 2943 2944 2948 2952 2957 2960 2963 2967 2971 2975 2979
3011 3007 3004 3000 2996 2992 2988 2984 2980 2975 2972 2970 2967 2962 2958 2954 2948 2943 2940 2938 2935 2932 2930 2929 2928 2926 2927 2929 2931 2933 2936 2939 2941 2942 2945 2950 2955 2958 2962 2964 2967 2972 2974 2978
3008 3003 2999 2995 2991 2988 2983 2979 2976 2972 2969 2967 2965 2961 2957 2953 2950 2945 2940 2936 2933 2931 2929 2929 2929 2928 2929 2929 2930 2932 2935 2937 2940 2943 2947 2950 2954 2957 2961 2963 2967 2971 2973 2979
3002 3000 2996 2991 2987 2982 2978 2976 2973 2968 2965 2964 2962 2959 2955 2951 2948 2945 2942 2937 2935 2931 2929 2927 2926 2927 2928 2929 2930 2933 2935 2936 2940 2943 2947 2950 2954 2956 2960 2963 2966 2970 2974 2978
2997 2994 2991 2987 2982 2977 2973 2970 2967 2963 2960 2960 2959 2956 2953 2949 2946 2942 2940 2937 2934 2932 2930 2927 2926 2927 2928 2929 2930 2932 2934 2937 2940 2943 2947 2950 2952 2956 2960 2963 2966 2970 2973 2977
2994 2992 2986 2982 2978 2972 2965 2964 2961 2958 2956 2955 2954 2953 2950 2946 2944 2942 2939 2936 2933 2930 2929 2927 2926 2925 2926 2928 2929 2930 2932 2935 2938 2941 2944 2947 2951 2954 2957 2960 2964 2967 2970 2975
2989 2983 2980 2976 2973 2970 2962 2957 2954 2952 2950 2950 2949 2948 2946 2944 2940 2938 2936 2934 2932 2929 2927 2926 2925 2924 2924 2925 2926 2928 2929 2932 2935 2938 2942 2945 2949 2952 2954 2958 2961 2965 2969 2973
2982 2979 2971 2969 2966 2963 2957 2952 2949 2947 2946 2945 2944 2944 2942 2940 2939 2936 2934 2932 2931 2929 2927 2926 2923 2922 2923 2922 2924 2925 2928 2930 2933 2934 2938 2942 2945 2949 2952 2956 2960 2963 2966 2970
2975 2973 2969 2962 2959 2955 2951 2947 2944 2942 2941 2940 2940 2939 2939 2937 2935 2933 2932 2930 2928 2927 2926 2925 2924 2922 2920 2921 2921 2923 2925 2928 2930 2933 2935 2939 2943 2946 2950 2954 2957 2961 2964 2967
2968 2965 2963 2959 2953 2948 2945 2942 2939 2937 2936 2936 2936 2936 2935 2934 2932 2930 2929 2928 2926 2925 2924 2923 2923 2923 2922 2921 2921 2922 2923 2925 2928 2930 2932 2936 2939 2943 2948 2951 2954 2957 2961 2964